RH
5 5 5 5 5 6 6 8 9 9 10 10 10 9 9 8 7 6 6 5 5 6 6 6 6 7 8 9 9 9 10 11 12 13 13 14 15 15 16 17 20 20 19 22 24 26 30 32 30 28 25 24 24 23 25 27 28 30 31 31 32 31 32
5 5 6 5 5 6 6 8 8 9 10 10 11 10 9 8 7 7 6 5 5 6 6 7 6 7 8 9 9 9 10 11 12 13 14 14 15 15 16 17 19 19 20 24 27 28 30 30 28 24 22 23 25 24 27 30 30 33 34 33 35 35 34
6 5 6 5 6 6 6 8 8 9 10 10 11 10 9 9 8 7 6 5 5 6 6 7 6 7 8 9 9 9 10 11 12 14 14 14 15 16 16 18 19 21 22 24 28 30 29 27 25 23 22 23 26 28 31 32 33 35 36 37 38 38 37
6 5 6 5 6 7 7 7 8 9 10 10 11 10 9 9 8 7 6 5 5 6 6 7 7 7 8 9 9 10 10 12 13 14 15 15 16 17 17 19 20 22 24 27 29 29 28 26 25 23 23 26 29 32 34 35 37 40 40 41 42 41 40
6 5 6 6 6 7 7 7 8 9 10 11 11 10 9 8 8 7 6 5 5 6 6 7 7 7 8 9 10 10 11 12 14 15 16 15 16 17 19 21 23 25 27 29 29 28 27 26 26 24 25 30 36 37 37 38 42 47 46 45 46 45 43
6 6 6 6 6 7 7 8 8 9 10 11 10 10 9 8 8 7 6 6 6 6 6 7 7 8 9 10 10 11 12 13 14 15 16 16 17 20 22 24 27 28 30 31 31 29 28 27 28 30 30 35 42 46 45 46 52 56 53 49 50 48 45
6 6 6 6 7 7 7 8 9 9 10 10 10 10 9 8 8 7 6 6 6 6 7 7 8 8 9 10 11 12 13 14 15 15 16 18 21 23 26 27 28 30 32 33 33 32 31 32 34 37 38 40 46 53 57 59 61 61 55 54 58 53 45
6 6 6 7 7 7 8 8 8 10 10 10 10 9 9 8 8 7 7 6 6 7 7 7 8 9 10 11 12 12 13 14 15 17 20 23 26 28 29 30 31 33 34 38 43 40 39 44 46 45 44 45 50 60 66 67 68 65 58 61 67 60 50
6 6 7 7 7 7 8 8 8 10 10 10 10 9 9 9 8 8 7 6 6 7 8 8 9 10 10 11 12 12 13 15 17 20 24 27 29 30 31 32 35 39 43 53 62 58 57 64 60 51 49 50 55 66 69 67 70 70 66 68 69 61 55
6 7 7 7 8 8 8 8 9 10 10 10 10 10 10 9 9 9 7 7 7 7 8 9 9 10 10 11 11 12 14 18 22 26 28 29 31 34 39 44 49 54 62 77 84 78 76 75 61 47 49 51 53 60 64 68 75 76 75 79 75 62 57
6 7 7 8 7 8 8 8 9 10 10 10 10 10 10 9 8 8 7 7 7 8 8 9 9 10 11 11 12 15 19 23 27 30 31 33 36 41 49 56 60 60 66 74 77 70 65 60 49 42 45 49 53 62 70 78 87 89 89 95 93 78 66
7 7 8 8 8 8 8 8 9 10 10 10 11 12 12 11 9 8 7 7 8 9 9 9 10 11 11 12 15 19 23 27 29 31 34 35 38 40 42 46 48 50 52 55 56 53 47 44 45 47 49 54 65 77 86 90 95 98 98 100 99 88 73
7 8 8 8 8 8 8 8 9 10 10 10 11 12 13 13 11 9 8 8 9 9 9 10 11 12 12 15 20 24 27 30 32 33 33 33 34 34 34 36 39 42 46 49 51 50 44 43 51 56 58 66 81 92 97 99 99 100 101 100 96 85 70
7 8 8 8 8 8 8 8 9 10 11 11 11 12 13 13 12 10 9 9 9 10 11 12 13 14 16 20 25 29 30 31 31 31 31 30 30 31 33 35 37 38 41 45 50 52 50 52 61 68 69 78 93 100 99 100 100 97 95 95 89 78 70
7 8 8 8 9 9 8 8 9 10 11 11 11 12 13 13 12 11 10 9 10 11 12 13 15 17 22 26 28 29 29 29 29 29 30 31 31 32 33 33 34 37 41 45 50 54 55 56 63 72 78 86 97 101 100 101 99 94 91 88 80 72 69
7 8 8 9 9 9 9 8 9 10 10 10 11 12 13 12 12 11 10 9 10 11 12 14 19 23 27 29 27 26 26 27 30 32 34 34 34 33 33 34 37 42 47 51 54 55 57 62 70 81 87 92 98 100 100 99 92 85 82 80 73 66 64
8 8 8 9 9 9 9 9 9 10 10 10 11 12 12 12 11 11 10 10 10 12 14 19 24 27 28 26 23 23 26 30 35 38 37 37 36 35 35 38 43 49 54 58 59 60 61 66 73 79 80 82 85 85 84 84 78 73 76 76 72 67 63
8 8 8 9 9 9 9 9 9 10 10 10 12 12 12 12 12 11 10 10 12 15 20 25 27 27 24 22 23 26 30 35 40 42 42 43 43 40 38 42 49 55 57 58 58 59 61 63 65 67 68 68 70 72 75 77 74 73 77 78 75 73 69
8 8 8 9 9 9 9 9 9 10 11 11 12 12 12 13 13 11 11 13 17 21 26 28 25 22 21 23 27 30 34 38 44 46 46 48 48 43 42 49 57 59 59 59 58 59 61 62 62 63 64 65 67 71 75 77 76 75 79 79 77 79 79
8 8 8 9 9 9 9 9 9 10 11 12 12 13 13 13 13 13 16 19 23 26 26 24 20 19 22 26 30 33 35 37 42 46 47 50 52 48 49 55 61 64 64 62 62 63 63 62 60 60 62 63 66 72 76 77 77 77 79 81 80 80 85
8 9 8 9 9 9 9 10 10 11 12 12 12 13 13 14 16 19 23 25 25 25 22 19 17 20 25 30 32 34 35 37 41 47 49 51 52 51 53 60 66 68 68 66 66 66 62 58 56 57 59 63 65 71 76 77 78 78 80 83 82 82 85
8 9 9 8 9 9 10 11 11 11 12 12 12 13 14 18 21 24 26 25 23 21 18 18 20 24 28 32 34 35 37 38 42 47 48 49 50 53 59 68 72 72 70 68 66 62 55 51 53 56 59 63 66 70 75 77 79 82 82 83 84 84 85
9 9 9 9 9 9 10 11 11 12 12 12 12 15 19 23 25 25 25 23 21 20 20 21 24 28 32 36 38 39 40 41 42 46 49 50 55 61 67 73 75 74 73 70 65 58 52 50 55 59 61 64 66 69 75 79 82 85 86 86 86 85 86
9 10 10 9 9 9 10 11 11 11 11 12 15 20 24 25 24 23 23 23 22 23 25 26 28 33 37 41 43 44 44 44 44 47 52 56 61 67 73 78 78 77 76 71 63 56 52 51 57 62 63 64 66 69 74 80 85 87 89 91 90 87 87
10 11 11 11 10 10 10 11 11 10 11 15 21 24 25 23 23 23 24 26 26 27 29 31 33 38 42 46 49 50 48 47 48 51 57 63 69 74 78 80 80 78 76 69 60 56 54 55 60 65 65 66 68 71 75 81 88 91 92 94 94 90 88
11 12 12 12 12 11 10 11 10 10 13 20 24 25 23 22 22 23 26 29 29 29 31 35 39 44 48 51 55 55 53 51 52 57 63 69 74 78 80 81 80 79 76 68 61 57 56 59 64 67 67 69 72 73 77 85 91 94 95 96 98 95 89
13 13 13 13 12 11 11 10 10 12 18 24 25 23 22 22 23 26 28 29 29 31 35 39 44 48 53 58 60 59 58 57 58 63 70 74 78 80 82 82 83 82 77 71 66 63 62 64 69 69 69 73 76 77 81 89 95 97 97 98 100 98 92
14 13 14 14 13 12 11 10 11 17 23 26 24 22 21 23 25 27 28 28 30 34 38 41 46 52 59 64 66 64 63 64 66 71 74 77 80 81 81 82 83 81 78 75 73 72 69 69 72 73 73 77 81 82 85 92 97 98 98 100 102 100 95
15 13 14 15 14 13 13 12 15 21 25 24 23 23 24 26 29 30 30 30 33 37 40 43 48 55 63 69 72 72 71 72 74 76 77 78 80 80 80 81 82 80 78 78 79 78 75 75 76 78 80 84 86 87 90 95 98 98 99 101 101 100 97
15 14 15 15 14 13 15 17 20 24 24 22 23 25 27 31 33 33 34 35 38 41 43 46 51 57 65 73 78 79 79 79 81 80 79 79 80 80 80 81 80 80 80 80 79 78 78 79 82 83 86 89 91 93 95 97 98 99 100 101 101 100 98
16 16 16 15 14 15 18 22 24 24 23 23 25 27 30 32 34 35 37 39 42 44 45 48 54 61 69 77 83 85 85 86 86 84 82 81 80 80 82 83 81 82 82 80 79 79 80 83 87 89 92 95 97 98 99 99 99 100 101 102 102 100 97
17 16 16 15 16 19 22 24 24 24 24 26 28 31 32 33 34 36 39 41 44 46 47 51 58 64 70 76 82 88 90 91 90 88 87 86 83 81 83 85 86 87 86 83 81 82 84 87 91 94 97 100 102 102 101 100 101 103 102 101 101 99 97
16 16 15 15 19 23 25 25 25 25 26 28 31 33 33 34 35 37 40 43 44 45 48 53 58 64 70 76 82 88 92 93 93 92 91 91 89 85 85 87 90 91 90 87 87 88 89 91 96 99 102 105 104 104 103 103 102 102 102 102 100 98 97
15 15 15 17 21 24 25 25 27 28 29 30 31 32 33 35 36 36 39 42 43 43 46 52 58 65 73 78 83 89 92 94 95 95 94 94 94 92 90 90 92 93 93 92 93 94 94 96 101 104 105 106 105 104 103 101 100 101 102 102 101 99 98
12 13 16 20 23 24 24 27 29 30 30 31 32 33 36 37 36 34 36 38 40 41 45 51 58 66 74 81 86 90 94 95 96 96 97 97 97 97 96 96 97 97 98 99 99 98 98 100 103 106 106 106 105 104 102 99 100 102 102 101 101 101 100
11 12 15 21 24 24 24 27 30 30 31 32 33 36 39 39 35 33 35 36 37 40 45 50 57 65 73 82 88 92 95 97 97 97 98 100 101 102 101 101 101 101 102 103 102 101 101 101 101 103 104 104 104 104 102 100 100 101 102 101 101 101 100
Wind_Speed
18 18 17 17 18 19 20 20 20 20 20 19 19 19 19 21 21 21 20 19 20 20 20 21 21 20 20 21 22 21 22 23 22 24 24 23 26 26 25 29 33 39 50 53 46 44 45 43 43 45 44 44 46 44 43 44 43 43 44 44 43 43 41
19 18 18 18 19 20 21 21 21 21 22 21 20 20 20 22 23 22 21 20 20 20 21 22 21 21 21 22 23 22 23 24 23 24 25 24 26 28 27 27 32 37 45 52 50 46 46 44 43 45 45 44 46 45 44 44 44 44 44 43 43 43 41
19 19 19 19 20 21 21 21 22 22 23 22 21 21 21 23 24 23 21 21 21 21 22 22 22 21 22 23 24 23 23 24 25 25 26 26 26 29 29 27 30 34 40 48 51 48 46 46 45 45 45 44 45 44 44 44 44 44 43 42 43 43 42
19 19 19 20 21 21 21 21 22 23 23 22 22 22 23 23 24 23 22 21 22 22 22 23 23 22 23 24 24 24 24 24 25 26 27 27 27 28 30 29 29 33 37 43 49 49 46 46 46 46 44 43 44 43 43 44 45 45 44 44 44 44 43
20 20 20 21 21 21 21 22 23 23 23 22 23 23 24 24 24 23 22 22 23 23 23 23 24 23 24 25 26 25 25 25 26 27 28 28 28 29 30 31 31 33 35 40 46 49 47 46 46 46 43 41 43 45 45 45 46 46 46 46 47 45 43
20 20 21 21 21 21 21 22 23 23 22 22 23 24 25 24 24 23 22 23 23 23 24 24 24 25 24 26 27 26 26 26 27 28 28 28 29 30 31 33 33 34 36 39 43 47 48 47 45 45 43 40 42 46 48 48 49 48 47 48 48 46 42
20 21 21 21 21 21 22 22 23 22 22 22 24 25 25 25 25 24 23 23 24 24 25 25 25 25 25 25 27 27 27 27 28 29 29 29 30 31 32 34 35 35 37 40 42 45 46 46 45 44 44 43 43 45 46 47 50 52 50 49 48 46 44
21 21 22 22 21 21 22 22 22 22 22 23 24 25 26 25 25 25 23 23 24 24 25 26 26 26 26 26 27 27 27 28 28 30 31 30 31 32 34 35 36 37 38 40 42 44 45 45 45 44 44 44 44 45 45 45 49 53 53 50 48 47 45
22 22 22 22 21 21 22 22 21 21 22 23 25 25 26 26 25 25 24 24 25 25 26 26 27 26 26 26 26 27 27 28 28 30 32 33 33 34 35 37 37 38 39 40 41 43 43 44 45 44 44 45 44 44 45 46 47 49 49 49 50 49 45
23 23 22 22 22 21 21 21 21 22 23 24 25 26 26 26 26 25 25 25 26 27 26 26 27 26 25 26 27 28 29 30 30 31 33 35 35 36 36 37 37 38 38 38 39 41 41 43 45 44 43 44 44 43 44 44 43 45 47 49 51 52 47
23 23 23 22 22 21 21 21 21 22 23 23 25 27 28 27 27 26 25 26 27 28 27 26 27 27 26 27 28 29 31 32 32 33 34 36 36 36 36 36 37 38 38 38 39 41 41 43 45 43 41 41 42 40 40 39 40 43 46 47 48 51 50
23 23 23 23 22 21 21 21 22 23 23 23 24 26 28 28 28 28 27 27 29 30 29 28 28 28 27 27 29 31 33 34 34 34 35 36 36 36 36 35 36 37 38 38 39 41 41 41 42 41 38 37 37 36 36 38 39 41 43 43 44 48 51
23 23 23 23 22 21 21 22 23 23 23 24 24 25 26 28 29 29 28 29 30 31 30 30 30 31 30 28 29 32 34 35 36 36 36 37 37 37 36 34 34 34 35 35 37 39 39 36 36 37 35 32 32 34 36 38 39 40 41 42 44 48 52
24 23 23 23 22 21 21 22 23 24 23 24 24 24 26 28 29 29 29 30 31 31 31 31 32 33 33 31 31 33 35 37 37 37 38 38 37 35 33 32 31 30 30 30 32 34 34 31 30 32 32 30 30 32 35 36 38 41 42 44 47 50 51
24 23 23 23 23 23 22 22 24 24 24 24 24 25 27 29 30 30 30 30 31 31 31 32 32 34 34 33 33 34 35 37 38 38 38 37 35 33 30 29 27 26 26 27 27 29 30 29 29 30 31 30 30 31 32 34 38 43 46 49 50 49 47
23 23 23 23 24 24 23 22 24 24 24 24 24 26 28 31 31 30 30 31 30 30 31 32 33 34 36 36 36 36 36 37 37 37 37 35 32 31 28 26 25 24 24 24 24 26 28 29 29 29 29 29 28 30 33 38 42 43 43 45 46 45 42
23 24 24 23 24 25 25 24 23 24 24 24 24 27 30 32 32 31 31 31 31 30 31 32 33 36 37 37 37 37 36 35 35 34 33 32 31 29 27 25 24 23 23 22 23 25 26 27 28 28 28 29 29 32 35 38 40 38 36 38 40 41 40
24 23 23 24 24 25 27 25 23 23 24 24 25 28 31 33 33 32 32 32 32 32 33 34 35 36 38 39 38 36 35 33 32 31 31 30 30 29 28 25 24 23 22 22 23 25 26 27 27 27 26 26 27 28 30 32 33 32 31 33 35 37 39
25 24 23 24 26 26 27 26 23 23 24 24 25 28 31 33 34 34 33 33 34 34 35 36 37 37 38 38 37 35 32 29 28 28 29 29 30 30 28 25 24 24 24 24 24 25 26 26 25 25 24 24 24 25 25 27 28 28 28 30 32 32 35
26 25 23 24 26 26 26 26 24 22 23 25 26 28 31 33 34 35 35 35 36 37 37 37 37 38 37 36 34 31 29 26 25 27 27 27 29 29 28 26 25 24 25 26 26 26 25 25 24 23 22 22 22 23 23 23 24 24 25 27 30 30 31
26 27 25 24 26 26 26 26 25 23 23 25 27 28 30 32 34 34 36 37 38 39 39 39 38 37 36 33 31 28 27 25 24 25 27 27 28 28 28 27 26 25 25 27 28 26 25 24 23 21 21 21 22 22 22 22 22 22 23 24 27 29 31
26 27 27 25 26 26 26 25 25 25 24 25 26 28 29 31 33 34 36 39 40 40 40 40 38 35 33 30 28 26 25 25 24 25 26 27 27 27 26 26 26 27 27 27 27 26 25 23 22 22 21 21 22 22 23 23 22 22 23 24 25 27 30
26 28 29 27 26 26 25 25 25 25 26 26 25 26 28 31 33 34 36 39 41 41 40 39 36 33 30 29 27 26 25 25 25 25 25 26 26 25 25 25 26 27 28 28 28 27 25 23 23 23 22 22 23 23 24 25 24 23 23 25 26 26 29
27 29 30 29 28 26 24 24 25 26 26 25 25 26 28 32 34 35 37 39 40 40 39 37 35 32 30 29 27 26 25 25 24 25 25 25 26 25 24 25 27 27 28 29 28 28 26 24 24 25 24 24 24 25 26 26 26 25 25 26 27 28 29
27 29 30 30 29 26 24 24 26 26 25 24 25 26 29 32 34 36 37 38 39 38 37 35 33 32 30 28 27 26 25 24 24 25 25 25 25 25 25 25 26 27 28 29 29 29 28 26 26 26 26 26 25 26 27 28 27 27 27 27 29 30 30
28 29 30 30 28 27 26 25 25 25 24 24 26 28 30 33 35 36 37 37 37 36 34 33 32 31 30 28 27 26 25 24 24 25 25 25 24 24 24 25 26 27 29 30 30 29 29 28 28 28 28 27 27 27 28 28 29 29 29 29 29 32 33
28 29 29 29 28 28 29 27 25 24 25 25 27 29 31 33 35 36 35 35 34 33 33 32 31 30 29 28 27 25 24 24 24 24 24 24 24 24 24 24 26 27 29 30 31 30 30 30 30 30 30 29 29 29 29 29 30 31 31 30 30 33 36
28 28 28 28 28 29 30 29 25 24 26 27 28 30 33 34 35 35 34 33 32 31 31 31 30 30 29 28 26 25 23 23 23 23 23 23 23 24 24 25 26 28 29 30 30 31 31 32 31 31 31 31 31 31 30 30 30 31 32 31 31 34 37
28 27 26 28 29 30 31 31 27 24 26 29 30 31 34 34 35 34 34 32 31 31 31 31 31 30 30 29 27 26 25 24 23 23 23 23 24 25 25 26 27 29 28 28 29 31 32 32 33 32 32 32 33 33 31 31 31 32 32 31 32 34 36
26 25 26 28 29 29 30 32 29 26 28 30 31 32 33 34 33 33 33 32 31 31 32 32 31 31 30 30 29 28 26 25 25 24 24 24 25 26 27 27 28 29 28 28 29 31 32 33 33 33 33 33 34 34 33 32 32 32 32 32 32 34 36
26 25 26 28 30 29 29 30 30 29 29 31 32 32 32 32 32 32 31 31 30 31 31 31 31 32 31 30 30 29 27 27 27 26 26 26 26 27 28 29 29 28 28 29 30 31 32 33 33 34 34 34 34 35 34 33 33 33 32 32 32 34 35
24 25 26 26 28 30 30 29 29 30 31 32 33 32 31 31 31 31 30 29 28 30 30 31 31 32 31 31 31 30 29 28 28 28 28 29 29 28 28 29 30 29 29 30 31 32 33 33 33 34 34 34 34 34 35 34 33 33 32 32 32 33 34
23 24 25 26 27 28 29 29 29 30 31 32 32 31 31 31 31 31 29 27 26 28 30 30 31 32 31 31 31 30 30 30 30 30 30 31 31 30 30 30 30 30 31 31 31 32 33 34 34 34 34 34 34 34 34 34 34 33 32 32 32 33 33
21 22 23 25 25 26 28 29 29 30 31 31 30 30 30 31 31 30 26 24 25 27 29 30 31 31 31 30 30 30 30 30 30 31 32 32 32 32 32 31 31 31 32 32 32 33 33 34 33 33 34 34 34 33 33 34 33 33 32 31 32 32 33
22 22 23 23 24 25 27 28 28 29 30 30 29 28 29 31 32 28 25 23 24 26 27 29 30 30 30 29 30 30 30 31 31 31 32 33 33 33 33 32 32 32 33 33 33 34 34 33 33 33 33 33 33 33 33 34 33 32 31 31 31 32 32
25 23 23 23 23 24 27 28 28 28 28 28 27 27 28 30 30 27 25 25 25 25 26 28 29 29 29 29 30 30 30 31 31 32 32 33 33 34 33 33 33 33 34 34 34 35 34 33 34 33 31 32 33 32 32 33 32 31 31 30 30 31 31
Wind_Direction
271 271 273 275 277 277 277 278 280 284 288 293 299 303 305 303 298 295 293 290 289 289 290 291 292 296 299 299 300 302 303 305 306 306 306 306 305 305 305 304 300 298 300 305 309 311 315 319 319 319 320 321 320 321 321 319 320 321 322 324 325 324 326
270 272 275 276 277 276 275 276 278 280 285 289 295 299 301 299 296 294 293 290 289 289 290 292 293 296 299 298 300 303 304 305 306 305 305 306 304 304 304 303 300 299 300 303 308 310 313 317 318 317 319 321 320 321 320 319 321 322 323 325 324 323 326
271 273 276 277 276 275 274 275 276 278 282 286 291 295 297 296 294 293 293 290 289 290 291 293 295 297 299 299 300 303 305 305 306 305 304 304 303 302 302 301 299 298 299 302 306 309 313 316 317 317 319 320 319 319 320 320 321 322 322 323 323 324 327
272 273 275 275 274 275 275 275 276 277 280 285 289 292 293 293 292 292 292 290 290 292 293 295 296 298 300 300 301 304 305 305 305 304 303 303 302 300 300 300 298 297 299 301 304 308 312 315 315 316 318 319 318 319 320 320 321 321 322 323 324 326 328
272 273 273 273 274 274 274 274 274 276 280 284 287 290 291 291 290 291 291 290 291 293 294 295 297 299 301 301 302 304 305 305 304 302 301 301 301 299 299 299 298 299 300 301 303 307 311 312 313 315 317 319 320 320 321 321 320 321 323 323 324 326 328
271 271 272 272 273 273 273 272 273 276 280 283 286 288 290 290 290 290 290 290 291 293 295 296 297 300 300 301 303 304 305 304 301 299 299 300 300 300 300 300 300 302 302 301 303 305 308 310 313 314 317 321 322 321 320 321 320 320 321 322 323 324 326
269 270 271 271 271 271 270 270 273 277 280 284 287 289 290 290 290 290 290 291 292 293 295 296 297 299 301 301 302 303 302 301 299 298 299 300 301 301 301 301 302 303 302 302 303 304 307 310 312 314 317 322 322 319 319 319 319 318 319 321 322 322 325
270 270 270 270 269 269 269 271 275 279 283 286 288 289 290 289 289 289 290 290 292 293 294 296 297 298 300 300 299 299 298 299 299 299 300 301 302 302 301 302 302 303 302 302 303 305 307 309 311 314 317 319 319 316 316 317 316 316 318 320 319 320 325
270 270 270 270 269 269 271 274 278 282 286 288 290 289 289 289 289 290 291 292 293 293 294 295 295 296 297 296 295 296 297 298 299 301 302 303 302 302 301 302 302 303 303 303 303 304 306 306 307 311 313 313 313 312 312 314 314 313 315 318 318 320 326
270 270 270 269 269 271 273 277 281 285 289 291 291 289 288 288 288 289 291 293 293 292 292 292 293 294 296 296 298 299 300 300 301 301 302 302 302 302 302 302 302 301 301 299 298 299 300 300 302 306 307 307 308 309 310 312 314 315 317 320 320 321 325
269 270 270 269 270 272 275 280 285 288 291 292 291 290 289 288 289 289 291 293 293 293 294 294 295 297 299 300 302 303 303 302 303 302 301 301 301 300 299 296 294 294 293 291 290 291 293 294 297 302 305 305 307 309 311 313 317 318 319 319 318 317 321
269 268 269 270 272 275 278 283 287 290 291 291 290 289 289 290 291 293 295 295 295 296 297 298 299 299 301 304 305 304 303 301 301 300 298 296 295 293 291 289 287 287 287 287 286 288 290 293 296 300 303 305 308 312 315 317 320 319 316 314 312 311 315
268 267 269 272 275 278 281 284 288 290 291 290 288 286 286 287 289 292 295 296 295 296 297 299 301 301 303 305 304 302 300 298 297 295 293 291 291 289 288 287 285 284 283 284 284 285 289 293 296 298 302 308 313 317 320 320 318 315 310 308 307 307 311
267 268 271 275 279 280 281 285 288 290 290 289 286 284 283 283 286 290 293 294 294 296 298 300 301 301 301 302 301 298 296 295 294 293 291 290 289 288 287 285 284 283 281 281 280 281 286 293 296 298 305 313 318 318 318 315 310 307 304 302 303 305 308
268 271 274 277 280 281 282 286 289 290 289 287 285 284 282 282 285 289 291 292 292 295 297 298 298 297 297 298 298 297 295 294 293 292 291 290 289 288 287 286 285 285 282 281 281 285 293 300 304 307 310 314 315 313 308 302 297 296 297 298 300 302 305
270 273 276 278 281 282 284 287 289 289 288 287 285 284 283 284 286 289 290 290 292 295 296 296 296 295 295 296 297 297 295 293 293 291 290 290 290 289 288 287 288 288 287 288 292 295 299 301 301 301 300 298 295 290 287 285 287 291 295 297 300 304 309
272 274 277 279 281 283 285 287 289 289 287 286 285 285 284 286 287 288 289 291 293 295 295 295 294 294 295 296 297 297 295 293 292 291 290 291 292 291 291 292 292 292 290 292 294 294 293 291 289 287 285 284 281 279 280 284 289 296 300 300 302 308 312
272 274 277 280 281 282 285 288 289 288 286 285 285 285 286 287 288 289 291 293 294 295 294 294 295 295 296 297 297 296 295 293 292 292 292 294 294 293 293 295 294 292 292 294 294 294 293 293 292 291 289 288 286 285 286 288 293 298 300 300 302 307 311
275 277 279 280 281 282 285 288 289 286 285 285 285 285 286 286 288 290 293 294 294 294 294 295 296 296 296 296 296 294 292 291 291 291 292 293 292 292 296 299 298 296 298 298 297 295 295 294 293 293 292 290 289 288 287 288 291 295 297 299 303 306 308
278 280 280 279 281 283 286 289 288 285 285 285 285 285 285 286 288 291 293 293 293 293 295 296 297 297 296 295 293 291 290 289 289 289 291 291 292 296 300 300 298 297 298 298 295 294 293 292 291 291 290 289 289 288 287 288 291 295 298 300 303 305 301
280 281 281 281 282 285 287 288 287 286 285 284 284 283 283 285 287 289 290 291 292 293 296 298 298 297 296 293 291 289 289 290 290 291 292 292 294 297 298 296 294 295 295 293 293 292 291 290 290 291 290 290 290 290 290 292 294 299 301 300 301 303 299
282 282 282 283 284 286 287 286 287 287 285 283 282 282 283 284 286 288 289 290 292 294 297 298 298 297 294 291 290 291 291 292 292 291 291 292 292 293 291 290 291 292 291 291 291 290 290 290 291 292 291 290 291 292 294 296 299 302 302 300 299 300 298
283 284 284 285 285 285 285 285 285 285 284 282 281 282 283 284 285 287 288 289 292 296 298 298 298 295 292 292 293 295 295 295 293 292 291 291 290 288 288 288 289 290 291 291 291 290 289 290 291 292 291 290 292 294 296 298 301 304 303 301 300 300 297
283 284 285 285 285 284 284 284 284 283 283 284 284 284 284 285 286 288 289 291 294 297 298 298 296 293 293 295 297 299 298 296 295 293 291 289 287 287 287 287 287 288 289 289 289 288 288 289 290 291 291 292 293 295 297 300 303 305 304 302 302 302 301
282 282 283 284 285 285 285 284 284 284 285 287 287 287 286 287 288 290 291 293 295 296 295 294 293 292 295 298 300 300 298 296 294 291 288 285 284 283 283 283 285 286 287 287 287 286 286 287 289 290 290 292 294 296 298 301 304 305 304 304 303 303 302
281 281 282 283 286 287 286 285 286 288 290 291 290 289 289 289 290 291 292 294 295 294 292 291 291 294 298 300 300 299 296 293 289 285 283 281 279 279 281 283 286 287 287 286 285 284 284 286 287 288 290 292 294 296 298 301 304 304 304 305 305 304 303
280 281 283 285 286 287 288 289 291 293 294 293 292 292 291 291 292 293 294 295 293 291 289 290 294 297 299 300 299 296 292 287 283 280 279 279 280 282 283 285 286 286 285 284 284 284 284 285 286 287 290 292 294 295 298 301 303 303 304 306 307 305 304
280 282 284 287 288 290 291 292 295 297 297 295 295 295 295 295 295 296 296 295 292 290 291 294 298 301 301 301 298 294 289 285 282 281 280 281 282 284 285 285 285 284 284 285 286 285 284 285 286 288 290 293 294 295 298 301 302 302 304 307 307 304 305
281 283 286 288 291 293 294 295 297 300 298 297 297 297 297 298 299 299 297 294 292 293 295 300 304 305 305 303 301 296 292 289 287 285 283 283 284 285 285 285 285 285 285 286 286 285 285 286 287 289 291 292 293 295 298 300 301 302 304 306 306 305 306
282 285 287 289 291 293 294 296 299 301 298 297 298 298 298 299 299 297 295 293 292 293 297 303 307 307 305 303 300 297 294 294 292 289 286 286 286 285 285 284 284 285 286 286 284 284 285 287 288 290 291 292 293 295 298 299 301 302 304 305 306 306 307
283 285 287 290 292 292 292 294 299 301 299 298 298 298 299 299 297 294 291 290 290 293 299 305 306 304 303 301 299 298 297 296 295 292 290 289 286 285 285 285 285 286 287 285 285 285 286 288 290 291 291 292 294 296 298 300 301 302 303 305 307 306 307
282 285 287 289 291 292 293 296 298 299 299 298 298 298 298 297 294 291 288 287 290 295 302 306 304 302 301 300 298 299 299 298 297 295 293 291 287 284 284 285 286 287 287 286 286 287 287 289 290 291 292 293 294 296 298 300 301 302 304 306 307 306 308
281 285 287 288 288 291 295 298 299 298 297 296 296 296 297 295 291 287 286 288 293 298 302 304 302 300 300 299 298 299 299 298 297 295 293 290 288 285 283 284 285 287 286 286 287 288 288 289 291 292 294 294 295 296 298 298 300 302 305 306 307 307 309
283 285 285 285 287 291 295 297 297 296 295 295 295 296 296 293 288 285 286 291 295 298 300 301 300 300 300 299 298 298 298 296 295 294 292 290 289 287 285 284 285 285 286 287 288 288 288 289 292 293 294 296 296 297 297 297 300 303 305 306 307 308 309
286 288 288 288 290 293 295 295 295 294 294 295 297 297 295 290 286 288 291 294 295 297 298 299 298 299 299 299 298 297 295 294 293 292 291 291 290 289 288 288 288 288 288 289 289 288 289 290 292 293 295 297 297 297 297 298 300 303 305 306 307 307 308
289 289 290 292 295 297 296 294 294 295 295 296 298 296 291 288 289 293 297 297 296 297 297 296 297 298 298 298 296 295 294 294 293 292 292 292 292 292 292 291 291 291 292 291 291 291 292 292 293 295 297 298 298 297 297 299 301 303 304 305 306 306 307